"Pseudo-MPEC" for Hz8u1Il

Created 2019 Nov 13 9:07:06 UT using Find_Orb

Click here for an explanation of pseudo-MPECs

 
 Astrometry: 
     Hz8u1Il !C2019 10 25D.=291(t;:(D'mmV?2fIe@3e[k.i=sV0*8+FR3D4ZF[6?wI,!hfAW84
     Hz8u1Il !C2019 10 26QG_X6V+Fg6_L6794%sZa0S83_9!%4#V7$pIoAstrometryU;GEs5W84
     Hz8u1Il !C2019 10 26l2Iq`]2p6K)P*USbfD@\G5Qd!Q]6CJ_o0v'redacted;Z3,cc%GXW84
     Hz8u1Il |C2019 10 30c*Vclick*@#s]ZJG[^LybenLbP,u6I8;KVMh;)L5aFrups0L2\LN807
     Hz8u1Il |C2019 10 30Ht!d$herea_;1QV6a^$AQl(wWG8ht$$Rt-jSo)nZZ$pBbNx*%jfV807
     Hz8u1Il |C2019 10 30/x$!fR%DR1K?;YhforEMHYexplanation,r!nFTRDs\-q:.]lg[D807

Station data:
(807) Cerro Tololo Observatory, La Serena  (S30.169136 W70.805900)  Chile.
(W84) Cerro Tololo-DECam  (S30.169597 W70.806420)  Chile. 4.0-m f/2.87
   reflector + CCD.

Orbital elements:  Hz8u1Il
   Perihelion 2018 Sep 3.340914 +/- 221 TT =  8:10:55 (JD 2458364.840914)
Epoch 2019 Oct 30.0 TT = JDT 2458786.5   Earth MOID: 0.5737   AutoNEOCP
M 167.27298916 +/- 110              (J2000 ecliptic)
n   0.39670196 +/- 0.251            Peri.   94.87640 +/- 90
a   1.83439621 +/- 0.773            Node    83.93347 +/- 27
e   0.2608943 +/- 0.195             Incl.   32.37965 +/- 3.6
P   2.48/907.47d           H 18.5   G  0.15   U 11.8  SR
q 1.35581267 +/- 0.937    Q 2.31297976 +/- 20.2
From 6 observations 2019 Oct. 25-30; mean residual 0".14
Residuals in arcseconds: 
191025 W84  .12-  .00     191026 W84  .09+  .03+    191030 807  .12-  .07+    
191026 W84  .04+  .04-    191030 807  .24-  .02-    191030 807  .36+  .06-    

Ephemerides (geocentric):
Date (UTC) HH   RA              Dec         delta   r     elong  mag " sig PA
---- -- -- --  -------------   -----------  ------ ------ -----  --- ---- ---
2019 11 13 09  22 56 18.128   -47 54 45.45  2.0360 2.3107  93.1 23.0  810 134
2019 11 13 10  22 56 19.379   -47 54 01.85  2.0364 2.3107  93.0 23.0  814 134
2019 11 13 11  22 56 20.633   -47 53 18.23  2.0368 2.3107  93.0 23.0  818 134
2019 11 13 12  22 56 21.891   -47 52 34.61  2.0373 2.3107  93.0 23.0  822 134
2019 11 13 13  22 56 23.151   -47 51 50.99  2.0377 2.3108  93.0 23.0  827 134
2019 11 13 14  22 56 24.415   -47 51 07.35  2.0381 2.3108  92.9 23.0  831 134
2019 11 13 15  22 56 25.682   -47 50 23.71  2.0385 2.3108  92.9 23.0  835 134
2019 11 13 16  22 56 26.951   -47 49 40.05  2.0389 2.3108  92.9 23.0  839 134
2019 11 13 17  22 56 28.224   -47 48 56.39  2.0394 2.3108  92.9 23.0  843 134
2019 11 13 18  22 56 29.499   -47 48 12.73  2.0398 2.3108  92.8 23.0  848 134
2019 11 13 19  22 56 30.778   -47 47 29.05  2.0402 2.3108  92.8 23.0  852 134
2019 11 13 20  22 56 32.060   -47 46 45.37  2.0406 2.3108  92.8 23.0  856 134
2019 11 13 21  22 56 33.344   -47 46 01.68  2.0410 2.3108  92.8 23.0  860 134
2019 11 13 22  22 56 34.632   -47 45 17.98  2.0415 2.3109  92.7 23.0  865 134
2019 11 13 23  22 56 35.922   -47 44 34.27  2.0419 2.3109  92.7 23.0  869 134
2019 11 14 00  22 56 37.216   -47 43 50.55  2.0423 2.3109  92.7 23.0  873 133
2019 11 14 01  22 56 38.513   -47 43 06.83  2.0427 2.3109  92.7 23.0  877 133
2019 11 14 02  22 56 39.812   -47 42 23.10  2.0432 2.3109  92.6 23.0  882 133
2019 11 14 03  22 56 41.115   -47 41 39.36  2.0436 2.3109  92.6 23.0  886 133
2019 11 14 04  22 56 42.420   -47 40 55.62  2.0440 2.3109  92.6 23.0  890 133
2019 11 14 05  22 56 43.729   -47 40 11.86  2.0444 2.3109  92.6 23.0  895 133
2019 11 14 06  22 56 45.040   -47 39 28.10  2.0448 2.3109  92.6 23.0  899 133
2019 11 14 07  22 56 46.355   -47 38 44.33  2.0453 2.3109  92.5 23.0  903 133
2019 11 14 08  22 56 47.672   -47 38 00.56  2.0457 2.3110  92.5 23.0  908 133
2019 11 14 09  22 56 48.993   -47 37 16.77  2.0461 2.3110  92.5 23.0  912 133
2019 11 14 10  22 56 50.316   -47 36 32.98  2.0465 2.3110  92.5 23.0  916 133
2019 11 14 11  22 56 51.642   -47 35 49.18  2.0469 2.3110  92.4 23.0  921 133
2019 11 14 12  22 56 52.971   -47 35 05.37  2.0474 2.3110  92.4 23.0  925 133
2019 11 14 13  22 56 54.304   -47 34 21.56  2.0478 2.3110  92.4 23.0  930 133
2019 11 14 14  22 56 55.639   -47 33 37.74  2.0482 2.3110  92.4 23.0  934 133
2019 11 14 15  22 56 56.977   -47 32 53.91  2.0486 2.3110  92.3 23.0  938 133
2019 11 14 16  22 56 58.318   -47 32 10.07  2.0490 2.3110  92.3 23.0  943 133
2019 11 14 17  22 56 59.662   -47 31 26.23  2.0495 2.3110  92.3 23.0  947 133
2019 11 14 18  22 57 01.009   -47 30 42.37  2.0499 2.3111  92.3 23.0  952 133
2019 11 14 19  22 57 02.359   -47 29 58.51  2.0503 2.3111  92.2 23.0  956 133
2019 11 14 20  22 57 03.711   -47 29 14.65  2.0507 2.3111  92.2 23.0  961 133
2019 11 14 21  22 57 05.067   -47 28 30.77  2.0512 2.3111  92.2 23.0  965 133
2019 11 14 22  22 57 06.426   -47 27 46.89  2.0516 2.3111  92.2 23.0  970 133
2019 11 14 23  22 57 07.787   -47 27 03.00  2.0520 2.3111  92.1 23.0  974 133
2019 11 15 00  22 57 09.152   -47 26 19.10  2.0524 2.3111  92.1 23.0  979 133
2019 11 15 01  22 57 10.519   -47 25 35.20  2.0528 2.3111  92.1 23.0  983 133
2019 11 15 02  22 57 11.889   -47 24 51.28  2.0533 2.3111  92.1 23.0  988 133
2019 11 15 03  22 57 13.263   -47 24 07.36  2.0537 2.3111  92.0 23.0  992 133
2019 11 15 04  22 57 14.639   -47 23 23.44  2.0541 2.3111  92.0 23.0  997 133
2019 11 15 05  22 57 16.018   -47 22 39.50  2.0545 2.3112  92.0 23.0 1001 133
2019 11 15 06  22 57 17.400   -47 21 55.56  2.0550 2.3112  92.0 23.0 1006 133
2019 11 15 07  22 57 18.785   -47 21 11.61  2.0554 2.3112  92.0 23.0 1010 133
2019 11 15 08  22 57 20.172   -47 20 27.66  2.0558 2.3112  91.9 23.0 1015 133